Location: Buckenweiler
(49.0667°N, 10.2500°E)
Time: 10:42:03
(UTC+00:00)

Cosmos 2082 Rocket - Pass Details

Date: 18 January 2026
Orbit: 831 x 853 km, 71.0° (Epoch: 15 February)

Event Time Altitude Azimuth Distance (km) Brightness Sun altitude
Exits shadow 05:53:52 13° 311° (NW) 2,283 3.9 -11.5°
Maximum altitude 05:58:07 30° 255° (WSW) 1,475 3.0 -10.8°
Drops below altitude 10° 06:02:59 10° 196° (SSW) 2,470 4.7 -10.1°
Sets 06:05:41 0° 186° (S) 3,404 5.5 -9.7°
